This is the latest recevied weather packets stored in our database for station/object N8AMF. If no packets are shown the sender has not sent any weather packets the latest 10 day(s).
| Time | Temp. | Humidity | Pressure | Rain* | Wind** | Luminosity | Snow |
|---|---|---|---|---|---|---|---|
| 1777809985 | 5° C | 72% | 1015.7 hPa | 0 mm | - | 78 W/m² | - |
| 1777809683 | 5° C | 71% | 1015.6 hPa | 0 mm | - | 56 W/m² | - |
| 1777809381 | 4.44° C | 72% | 1015.6 hPa | 0 mm | - | 56 W/m² | - |
| 1777809078 | 4.44° C | 73% | 1015.6 hPa | 0 mm | - | 52 W/m² | - |
| 1777808776 | 3.89° C | 73% | 1015.6 hPa | 0 mm | - | 52 W/m² | - |
| 1777808472 | 3.89° C | 73% | 1015.8 hPa | 0 mm | - | 48 W/m² | - |
| 1777808170 | 3.89° C | 73% | 1015.8 hPa | 0 mm | - | 49 W/m² | - |
| 1777807868 | 3.89° C | 73% | 1015.5 hPa | 0 mm | - | 44 W/m² | - |
| 1777807566 | 3.33° C | 74% | 1015.6 hPa | 0 mm | - | 41 W/m² | - |
| 1777807262 | 3.33° C | 75% | 1015.6 hPa | 0 mm | - | 37 W/m² | - |
| 1777806959 | 2.78° C | 77% | 1015.5 hPa | 0 mm | - | 34 W/m² | - |
| 1777806655 | 2.78° C | 77% | 1015.5 hPa | 0 mm | - | 31 W/m² | - |
| 1777806350 | 2.78° C | 77% | 1015.6 hPa | 0 mm | - | 28 W/m² | - |
| 1777806048 | 2.78° C | 78% | 1015.4 hPa | 0 mm | - | 25 W/m² | - |
| 1777805744 | 2.78° C | 77% | 1015.5 hPa | 0 mm | - | 22 W/m² | - |
| 1777805442 | 2.78° C | 77% | 1015.5 hPa | 0 mm | - | 19 W/m² | - |
| 1777805140 | 2.78° C | 78% | 1015.5 hPa | 0 mm | - | 16 W/m² | - |
| 1777804837 | 2.78° C | 78% | 1015.4 hPa | 0 mm | - | 12 W/m² | - |
| 1777804536 | 2.78° C | 77% | 1015.2 hPa | 0 mm | - | 9 W/m² | - |
| 1777804232 | 2.78° C | 77% | 1015.1 hPa | 0 mm | - | 6 W/m² | - |
| 1777803929 | 2.78° C | 77% | 1015.2 hPa | 0 mm | - | 4 W/m² | - |
| 1777803626 | 2.22° C | 77% | 1015 hPa | 0 mm | - | 2 W/m² | - |
| 1777803322 | 2.78° C | 77% | 1015.2 hPa | 0 mm | - | 1 W/m² | - |
| 1777803020 | 2.78° C | 77% | 1015.2 hPa | 0 mm | - | 0 W/m² | - |
| 1777802717 | 2.22° C | 78% | 1015.1 hPa | 0 mm | - | 0 W/m² | - |
* Rain latest hour (hover to see other rain measurements)
** Current wind speed in m/s (hover to see current wind gust speed)